Flag for Germany Weather past 2 weeks in Amberg, Bavaria, Germany

Now
70 °F

Sunny.


Feels Like: 70 °F
Forecast: 62 / 85 °F
Wind: 1 mph from North

Location: Hohenfels

Current Time: Aug 4, 2015 at 9:50:22 AM

Latest Report: Aug 4, 2015 at 8:58 AM


Visibility: N/A

Pressure: 29.96 "Hg

Humidity: 64%

Dew point: 57 °F

Location of AmbergLocation

Historic Weather in Amberg — Graph

°F

Amberg temperature yesterday

Maximum temperature yesterday: 82 °F (at 3:58 PM)
Minimum temperature yesterday: 55 °F (at 2:58 AM)
Average temperature yesterday: 69 °F

Past Weeks' High & Low Weather Summary

 TemperatureHumidityPressure
High97 °F (Jul 22, 4:58 PM)100% (Jul 23, 3:58 AM)30.11 "Hg (Jul 23, 3:58 AM)
Low43 °F (Jul 31, 4:58 AM)23% (Jul 22, 4:58 PM)29.66 "Hg (Jul 25, 2:58 AM)
Average66 °F66%29.93 "Hg
* Reported Jul 20 8:58 AM — Aug 4 8:58 AM, Amberg, Weather by CustomWeather, © 2015

Note: Actual official high and low records may vary slightly from our data, if they occured in-between our weather recording intervals... More about our weather records

Advertising

Amberg weather history for previous 24 hours

 ConditionsComfort  
Time TempWeatherWind HumidityBarometerVisibility
8:58 AM
Tue, Aug 4
70 °FSunny.1 mph64%29.96 "HgN/A
7:58 AM63 °FSunny.No wind77%29.97 "HgN/A
6:58 AM57 °FSunny.3 mph88%29.97 "HgN/A
5:58 AM54 °FClear.No wind94%29.97 "HgN/A
4:58 AM55 °FClear.No wind94%29.98 "HgN/A
3:58 AM57 °FClear.1 mph88%29.99 "HgN/A
2:58 AM57 °FClear.No wind88%29.99 "HgN/A
1:58 AM59 °FClear.No wind88%30.01 "HgN/A
12:58 AM59 °FClear.2 mph88%30.02 "HgN/A
11:58 PM
Mon, Aug 3
61 °FClear.3 mph83%30.03 "HgN/A
10:58 PM64 °FClear.2 mph78%30.03 "HgN/A
9:58 PM68 °FClear.5 mph73%30.03 "HgN/A
8:58 PM72 °FSunny.2 mph61%30.03 "HgN/A
7:58 PM79 °FSunny.3 mph45%30.01 "HgN/A
6:58 PM81 °FSunny.6 mph45%30.01 "HgN/A
5:58 PM82 °FSunny.1 mph42%30.03 "HgN/A
4:58 PM82 °FSunny.3 mph40%30.04 "HgN/A
3:58 PM82 °FSunny.3 mph42%30.04 "HgN/A
2:58 PM81 °FSunny.7 mph45%30.06 "HgN/A
1:58 PM79 °FPassing clouds.1 mph48%30.08 "HgN/A
12:58 PM77 °FSunny.2 mph51%30.09 "HgN/A
11:58 AM73 °FSunny.5 mph57%30.10 "HgN/A
10:58 AM72 °FPassing clouds.1 mph65%30.11 "HgN/A
9:58 AM70 °FSunny.3 mph69%30.09 "HgN/A
Weather by CustomWeather, © 2015

See weather overviewHow to use our weather pages